Home > Weather > Carrollton > Past weeks

Flag for USA Past Weather in Carrollton, Texas, USA — Yesterday and Last 2 Weeks

Now
84 °F

Mostly cloudy.


Feels Like: 90 °F
Forecast: 74 / 85 °F
Wind: 15 mph from South

Location: Dallas Love Field

Current Time: May 24, 2016 at 10:36:51 PM

Latest Report: May 24, 2016 at 9:53 PM


Visibility: 10 mi

Pressure: 29.89 "Hg

Humidity: 70%

Dew Point: 73 °F

Location of CarrolltonLocation

Past Weather in Carrollton — Graph

°F

Carrollton Temperature Yesterday

Maximum temperature yesterday: 83 °F (at 2:53 PM)
Minimum temperature yesterday: 67 °F (at 8:57 AM)
Average temperature yesterday: 77 °F

High & Low Weather Summary for the Past Weeks

 TemperatureHumidityPressure
High94 °F (May 10, 3:53 PM)96% (May 19, 3:53 AM)30.21 "Hg (May 19, 3:53 AM)
Low58 °F (May 18, 6:53 AM)32% (May 13, 3:53 PM)29.65 "Hg (May 9, 8:53 PM)
Average73 °F67%29.98 "Hg
* Reported May 9 8:53 PM — May 24 8:53 PM, Carrollton, Weather by CustomWeather, © 2016

Note: Actual official high and low records may vary slightly from our data, if they occured in-between our weather recording intervals... More about our weather records

Advertising

Carrollton Weather History for the Previous 24 Hours

Scroll right to see more
 ConditionsComfort  
Time TempWeatherWind HumidityBarometerVisibility
8:53 PM
Tue, May 24
84 °FMostly cloudy.20 mph67%29.85 "Hg10 mi
7:53 PM85 °FBroken clouds.14 mph65%29.85 "Hg10 mi
6:53 PM86 °FBroken clouds.14 mph63%29.87 "Hg10 mi
5:53 PM86 °FBroken clouds.21 mph61%29.87 "Hg10 mi
4:53 PM85 °FBroken clouds.17 mph65%29.87 "Hg10 mi
3:53 PM85 °FMore clouds than sun.15 mph65%29.90 "Hg10 mi
2:53 PM83 °FBroken clouds.15 mph68%29.91 "Hg10 mi
1:53 PM83 °FMostly cloudy.16 mph68%29.92 "Hg10 mi
12:53 PM82 °FBroken clouds.14 mph72%29.94 "Hg10 mi
11:53 AM75 °FLight rain. Fog.10 mph94%29.96 "Hg6 mi
10:53 AM76 °FFog.10 mph88%29.96 "Hg6 mi
9:56 AM76 °FDrizzle. Fog.10 mph88%29.97 "Hg5 mi
8:53 AM75 °FFog.8 mph90%29.94 "Hg6 mi
7:59 AM74 °FLight rain. Fog.7 mph91%29.96 "Hg2 mi
6:53 AM75 °FOvercast.6 mph85%29.90 "Hg9 mi
5:53 AM74 °FPassing clouds.10 mph85%29.88 "Hg10 mi
4:53 AM74 °FPassing clouds.10 mph85%29.87 "Hg10 mi
3:53 AM76 °FPassing clouds.14 mph82%29.85 "Hg10 mi
2:53 AM76 °FPassing clouds.16 mph82%29.85 "Hg10 mi
1:53 AM76 °FPartly cloudy.14 mph82%29.86 "Hg10 mi
12:53 AM78 °FPartly cloudy.17 mph76%29.87 "Hg10 mi
11:53 PM
Mon, May 23
79 °FOvercast.13 mph74%29.89 "Hg10 mi
10:53 PM80 °FMostly cloudy.14 mph71%29.88 "Hg10 mi
Weather by CustomWeather, © 2016

See weather overviewHow to use our weather pages